[[{"header":{"parameterUnit":"m.s-1","parameterCategory":1,"la1":30.2991,"la2":30.254,"lo1":-89.0895,"lo2":-89.0444,"dy":0.0017,"dx":0.0017,"nx":28,"ny":28,"refTime":"2023-08-14T21:00:00:Z","depth":0,"parameterNumber":2,"parameterNumberName":"U-component_of_WINDS"},"data":[0,0,0,0,0,0,0,0,0,0,0,0,0,0,0,0,0,0,0,0,0,0,0,0,0,0,0,0,0,0,0,0,0,0,0,0,0,0,0,0,0,0,0,0,0,0,0,0,0,0,0,0,0,0,0,0,0,0,4.6498,4.65,0,4.6598,4.66,4.6601,4.6545,4.6542,4.654,4.6537,4.6644,4.6649,4.6654,0,0,0,0,0,0,0,0,0,0,0,0,0,4.6264,4.6269,4.6498,4.65,4.6501,4.6598,4.66,4.6601,4.6546,4.6542,4.6539,4.6536,4.6642,4.6648,4.6655,0,0,0,0,0,0,0,0,0,0,0,0,0,4.6365,4.627,4.6498,4.6485,4.6485,4.6598,4.66,4.6601,4.6546,4.6542,4.6538,4.6534,4.664,4.6648,4.6656,4.6789,0,0,4.6681,4.6684,0,0,0,0,0,0,0,0,4.636,4.6374,4.6486,4.6486,4.6486,4.6555,4.6556,4.6665,4.6547,4.6523,4.6537,4.6532,4.6618,4.6628,4.6656,4.6794,4.6799,4.6681,4.6686,4.669,4.6692,0,0,0,0,0,0,0,4.6353,4.6369,4.6538,4.6487,4.6488,4.6475,4.6485,4.6576,4.6593,4.6525,4.6521,4.6533,4.6617,4.6648,4.6658,4.6801,4.6681,4.6688,4.6693,4.6697,4.7056,4.706,0,0,0,0,0,0,4.6346,4.6364,4.6535,4.6541,4.6411,4.6483,4.6494,4.6537,4.6592,4.6596,4.6537,4.653,4.6636,4.6648,4.6661,4.6822,4.669,4.6697,4.6702,4.7051,4.7057,4.7062,0,0,0,0,0,0,4.6341,4.6362,4.6531,4.6451,4.6472,4.6491,4.654,4.6541,4.6572,4.66,4.6604,4.6565,4.6633,4.665,4.6758,4.6825,4.6701,4.6709,4.7046,4.7053,4.7059,4.7145,0,0,0,0,0,0,4.6334,4.636,4.641,4.6453,4.6476,4.6625,4.6544,4.6546,4.6585,4.6578,4.6628,4.6632,4.6631,4.6746,4.6766,4.6834,4.6715,4.704,4.7049,4.7057,4.7136,4.7154,4.7169,0,0,0,0,0,4.6326,4.6431,4.6413,4.6434,4.6539,4.6629,4.6642,4.6638,4.6591,4.6642,4.6661,4.663,4.6814,4.6758,4.678,4.6851,4.7036,4.7046,4.7056,4.7128,4.715,4.7168,0,0,0,0,0,0,4.6396,4.6436,4.6417,4.6537,4.658,4.6619,4.6683,4.6661,4.6719,4.6709,4.6703,4.6715,4.6828,4.685,4.6786,4.6984,4.6918,4.6933,4.6965,4.6986,4.7002,4.6995,4.6722,0,0,0,0,0,4.6425,4.6493,4.6525,4.6629,4.6651,4.6664,4.6703,4.6696,4.674,4.6758,4.6785,4.683,4.6898,4.6943,4.7007,4.7139,4.715,4.7199,4.7215,4.7229,4.7242,4.7315,4.7337,4.7096,4.7096,4.7096,0,0,4.6487,4.6517,4.6561,4.6644,4.6676,4.6748,4.6679,4.6758,4.6812,4.6771,4.6874,4.6895,4.6946,4.7067,4.7121,4.7089,4.7311,4.7242,4.7253,4.7259,4.7328,4.7351,4.7371,4.7103,4.7102,4.7101,0,0,4.6636,4.6665,4.6755,4.6789,4.6838,4.6846,4.6867,4.691,4.6922,4.7026,4.6996,4.7062,4.7179,4.7216,4.7251,4.7415,4.739,4.7437,4.7523,4.7594,4.7613,4.7629,4.7689,4.7711,4.745,4.745,4.745,0,4.6707,4.6813,4.6805,4.6886,4.6925,4.6889,4.6981,4.7015,4.7083,4.7111,4.7073,4.722,4.7252,4.7381,4.7422,4.745,4.7476,4.7431,4.761,4.7627,4.7643,4.77,4.7722,4.7456,4.7455,4.7454,4.7454,0,4.6898,4.6972,4.704,4.7105,4.7151,4.7238,4.7244,4.7292,4.7281,4.7294,4.7401,4.7437,4.7509,4.7539,4.753,4.7668,4.7647,4.761,4.7543,4.7671,4.7725,4.7746,4.7463,4.7461,4.746,4.7458,0,0,4.7094,4.7154,4.7179,4.7209,4.7261,4.7319,4.7405,4.7473,4.7515,4.7564,4.7637,4.7737,4.7704,4.7743,4.7738,4.78,4.793,4.7756,4.7757,4.7788,4.8086,4.8113,4.8138,4.7913,4.7917,4.792,4.8082,0,4.7247,4.7395,4.7391,4.753,4.7599,4.7567,4.7642,4.7683,4.7697,4.776,4.7776,4.7847,4.7797,4.7821,4.7881,4.7901,4.7989,4.7889,4.7982,4.7986,4.7971,4.8166,4.8195,4.8346,4.8102,4.8106,4.8108,0,4.7445,4.7499,4.7645,4.7688,4.7717,4.7784,4.7847,4.7907,4.7953,4.7959,4.8004,4.7989,4.8078,4.8009,4.8132,4.8064,4.8102,4.8118,4.8124,4.8133,4.8055,4.8181,4.8393,4.8416,4.8141,4.8138,4.8136,0,4.7574,4.7684,4.7785,4.7812,4.7864,4.7912,4.7937,4.7979,4.8021,4.8077,4.8104,4.817,4.8207,4.8259,4.8264,4.8213,4.8389,4.8319,4.8398,4.8398,4.8436,4.8434,4.8658,4.846,4.846,4.8459,4.8459,0,4.7746,4.7837,4.7844,4.7907,4.8008,4.8003,4.8104,4.8124,4.8162,4.8229,4.8206,4.827,4.8271,4.8337,4.8341,4.8444,4.846,4.8469,4.8469,4.8471,4.847,4.8496,4.8486,4.8465,4.8464,4.8463,4.8462,0,4.7908,4.7916,4.8025,4.8065,4.8078,4.8151,4.8186,4.8246,4.8258,4.8344,4.8364,4.8383,4.846,4.8469,4.8558,4.8561,4.8685,4.8674,4.8669,4.8667,4.8745,4.8738,4.8994,4.9028,4.8807,4.8809,4.8811,0,4.8017,4.8086,4.8134,4.8176,4.8203,4.8272,4.8314,4.8313,4.8359,4.8417,4.8471,4.8545,4.8604,4.8728,4.8751,4.882,4.881,4.8896,4.8821,4.8821,4.8813,4.8809,4.8816,4.891,4.8913,4.8915,4.8916,0,4.8211,4.8212,4.8273,4.8337,4.8388,4.8438,4.8485,4.8522,4.8527,4.8579,4.8656,4.8702,4.8793,4.8867,4.8935,4.8962,4.8941,4.894,4.8961,4.8965,4.8959,4.8964,4.8709,4.8934,4.8932,4.8931,4.893,4.8929,4.835,4.841,4.8453,4.8523,4.8558,4.8603,4.8662,4.8681,4.8745,4.8818,4.8813,4.8899,4.8945,4.9034,4.9066,4.9133,4.9105,4.9137,4.9145,4.9153,4.9161,4.8948,4.9146,4.9145,4.9145,4.9144,4.9144,0,4.8543,4.8569,4.8633,4.87,4.8755,4.8729,4.878,4.8829,4.8904,4.8948,4.9006,4.9095,4.9167,4.9196,4.9267,4.9316,4.9308,4.9335,4.9331,4.9338,4.9182,4.9156,4.934,4.934,4.934,4.934,4.934,4.934,4.865,4.8751,4.8757,4.8875,4.8901,4.8984,4.9015,4.9057,4.9092,4.9193,4.9252,4.927,4.9308,4.9382,4.9447,4.9454,4.9482,4.9513,4.9516,4.9369,4.9349,4.933,4.9306,4.9519,4.9519,4.9666,4.9668,4.9669]},{"header":{"parameterUnit":"m.s-1","parameterCategory":1,"la1":30.2991,"la2":30.254,"lo1":-89.0895,"lo2":-89.0444,"dy":0.0017,"dx":0.0017,"nx":28,"ny":28,"refTime":"2023-08-14T21:00:00:Z","depth":0,"parameterNumber":3,"parameterNumberName":"V-component_of_WINDS"},"data":[0,0,0,0,0,0,0,0,0,0,0,0,0,0,0,0,0,0,0,0,0,0,0,0,0,0,0,0,0,0,0,0,0,0,0,0,0,0,0,0,0,0,0,0,0,0,0,0,0,0,0,0,0,0,0,0,0,0,1.2991,1.2992,0,1.3041,1.3041,1.3042,1.3049,1.3048,1.3048,1.3047,1.3098,1.31,1.3102,0,0,0,0,0,0,0,0,0,0,0,0,0,1.2901,1.2902,1.2991,1.2992,1.2992,1.3041,1.3042,1.3042,1.3049,1.3048,1.3048,1.3047,1.3097,1.31,1.3102,0,0,0,0,0,0,0,0,0,0,0,0,0,1.2944,1.2903,1.2991,1.3001,1.3003,1.3041,1.3042,1.3042,1.3049,1.3048,1.3047,1.3047,1.3097,1.3099,1.3102,1.3133,0,0,1.311,1.3111,0,0,0,0,0,0,0,0,1.2942,1.2948,1.2999,1.3001,1.3002,1.3038,1.3028,1.3073,1.3049,1.3031,1.3047,1.3046,1.3079,1.3083,1.3094,1.3135,1.3137,1.311,1.3112,1.3113,1.3114,0,0,0,0,0,0,0,1.2939,1.2945,1.3011,1.3,1.3002,1.3003,1.3009,1.3037,1.3058,1.3033,1.3033,1.3039,1.3079,1.3091,1.3095,1.3138,1.311,1.3113,1.3114,1.3115,1.3206,1.3207,0,0,0,0,0,0,1.2934,1.2943,1.3009,1.3012,1.297,1.3006,1.3012,1.3027,1.3058,1.3062,1.304,1.3039,1.3087,1.3092,1.3097,1.3134,1.3113,1.3116,1.3117,1.3205,1.3206,1.3207,0,0,0,0,0,0,1.2932,1.294,1.3007,1.2978,1.2986,1.3008,1.3025,1.3029,1.304,1.3063,1.3067,1.3048,1.3086,1.3093,1.3123,1.3136,1.3117,1.3119,1.3204,1.3206,1.3207,1.3209,0,0,0,0,0,0,1.2929,1.2939,1.2951,1.2978,1.2988,1.3034,1.3026,1.303,1.3045,1.3045,1.3072,1.3076,1.3086,1.3119,1.3126,1.3139,1.3121,1.3203,1.3205,1.3206,1.3208,1.321,1.3212,0,0,0,0,0,1.2926,1.295,1.2952,1.296,1.3004,1.3034,1.304,1.3052,1.3046,1.3058,1.3073,1.3075,1.3133,1.3122,1.313,1.3144,1.3203,1.3204,1.3206,1.3207,1.321,1.3212,0,0,0,0,0,0,1.2924,1.2954,1.2956,1.299,1.3009,1.3035,1.3051,1.3054,1.3076,1.3075,1.3089,1.3095,1.3125,1.3138,1.3125,1.3175,1.3167,1.3171,1.3165,1.3168,1.317,1.3166,1.3124,0,0,0,0,0,1.2928,1.295,1.2975,1.3002,1.3012,1.303,1.3043,1.3051,1.3072,1.308,1.3097,1.3117,1.314,1.3155,1.3177,1.321,1.3215,1.3223,1.3225,1.3227,1.323,1.3247,1.325,1.3213,1.3213,1.3213,0,0,1.2935,1.2954,1.2968,1.3002,1.3018,1.3041,1.3037,1.3061,1.3078,1.3084,1.3114,1.3127,1.315,1.3181,1.3196,1.3193,1.3241,1.3229,1.323,1.3232,1.3249,1.3252,1.3256,1.3214,1.3214,1.3214,0,0,1.2961,1.2977,1.3001,1.3018,1.3042,1.3054,1.3059,1.3085,1.3093,1.3124,1.3128,1.3148,1.3188,1.3204,1.3217,1.3247,1.325,1.3254,1.3265,1.3281,1.3284,1.3287,1.3297,1.3301,1.3257,1.3257,1.3257,0,1.2967,1.3001,1.3013,1.3037,1.3052,1.3058,1.3082,1.3097,1.3128,1.3138,1.3134,1.3182,1.3199,1.3233,1.3241,1.3252,1.3258,1.3251,1.3283,1.3286,1.3288,1.3298,1.3302,1.3257,1.3257,1.3257,1.3257,0,1.3007,1.3031,1.3047,1.3076,1.3093,1.3117,1.3132,1.3147,1.3153,1.3165,1.3195,1.3214,1.324,1.3249,1.3255,1.3285,1.3282,1.328,1.3273,1.3292,1.3301,1.3305,1.3258,1.3257,1.3257,1.3257,0,0,1.3033,1.3068,1.3074,1.3087,1.3114,1.3132,1.3156,1.3181,1.3194,1.3214,1.3234,1.3267,1.3265,1.328,1.3288,1.3303,1.3324,1.3299,1.33,1.3303,1.3357,1.3358,1.3362,1.3326,1.3327,1.3327,1.3355,0,1.3061,1.3104,1.3115,1.3151,1.3173,1.3179,1.3199,1.3218,1.3229,1.3249,1.3262,1.3284,1.3281,1.329,1.3305,1.3318,1.3335,1.3317,1.3344,1.3345,1.3338,1.3367,1.3368,1.3393,1.3359,1.3359,1.336,0,1.3099,1.312,1.3159,1.3182,1.3192,1.321,1.3234,1.3253,1.3273,1.3281,1.3297,1.3303,1.3327,1.3319,1.3352,1.3339,1.3351,1.3359,1.3361,1.3363,1.3353,1.337,1.3402,1.3405,1.3366,1.3365,1.3365,0,1.3113,1.3151,1.3179,1.319,1.3218,1.3231,1.3243,1.3263,1.3277,1.3298,1.3307,1.333,1.3343,1.336,1.3372,1.3365,1.3404,1.3397,1.341,1.341,1.3418,1.3418,1.3452,1.3427,1.3427,1.3426,1.3426,0,1.3143,1.3166,1.3186,1.3203,1.3228,1.3241,1.3266,1.3278,1.3296,1.3315,1.3321,1.3339,1.3354,1.3373,1.3383,1.3408,1.3414,1.342,1.3422,1.342,1.3419,1.3427,1.3426,1.3428,1.3427,1.3427,1.3427,0,1.3163,1.3177,1.3208,1.3232,1.3238,1.3256,1.3276,1.3293,1.3304,1.3328,1.3335,1.3352,1.3376,1.3389,1.3418,1.3425,1.3453,1.3455,1.3446,1.3447,1.346,1.3458,1.35,1.3506,1.3477,1.3478,1.3478,0,1.3181,1.3199,1.3225,1.3238,1.325,1.3272,1.3286,1.3299,1.3313,1.3338,1.3351,1.3375,1.3394,1.3431,1.3446,1.3468,1.347,1.3483,1.3474,1.347,1.347,1.3468,1.347,1.3485,1.3485,1.3485,1.3486,0,1.3211,1.3217,1.3238,1.326,1.3277,1.3296,1.3315,1.3325,1.334,1.3356,1.338,1.3395,1.3425,1.3448,1.3471,1.3484,1.3487,1.3489,1.3493,1.349,1.3484,1.3487,1.345,1.3488,1.3487,1.3487,1.3487,1.3487,1.323,1.3246,1.3266,1.3289,1.3304,1.3321,1.3337,1.3351,1.3371,1.3396,1.3402,1.3427,1.3446,1.3478,1.349,1.351,1.3507,1.3514,1.3515,1.3516,1.3517,1.3481,1.3514,1.3514,1.3514,1.3514,1.3514,0,1.326,1.3273,1.3294,1.3319,1.3337,1.3339,1.3359,1.3373,1.3395,1.3413,1.3432,1.3459,1.3481,1.3498,1.352,1.3532,1.3534,1.3538,1.3537,1.3539,1.3518,1.3511,1.3536,1.3536,1.3536,1.3536,1.3536,1.3536,1.3277,1.3304,1.3312,1.3346,1.3359,1.3384,1.3395,1.341,1.3425,1.3454,1.3473,1.3483,1.3501,1.3524,1.3545,1.3549,1.3557,1.356,1.3564,1.3543,1.3541,1.3539,1.3533,1.3561,1.3561,1.3584,1.3585,1.3585]}]]